#timestamp,LO_Frequency,Hit,StdDev 
1684944015.2,286046999.4,P
1684944035.1,286046998.8,N
1684944036.0,286046998.8,P
1684944055.8,286046999.0,Y
1684944075.6,286046998.6,P
1684944095.5,286046998.8,P
1684944115.3,286047001.2,P
1684944135.2,286046999.3,N
1684944155.9,286046999.0,N
1684944175.7,286046996.8,Y
1684944195.6,286046999.1,P
1684944215.4,286046996.6,P
1684944235.3,286046996.6,N
1684944255.1,286046997.1,N
1684944256.0,286046997.1,N
1684944275.8,286046999.5,N
1684944295.7,286046999.3,N
1684944315.5,286046998.7,N
1684944335.3,286046998.7,N
1684944355.2,286046999.0,N
1684944375.0,286046998.8,N
1684944375.9,286046998.8,N
1684944395.8,286046996.9,Y
1684944415.6,286047000.8,P
1684944435.5,286047001.1,N
1684944455.3,286047000.3,N
1684944475.1,286047000.6,N
1684944495.9,286047000.9,N
1684944515.7,286046999.3,N
1684944535.5,286047000.8,N
1684944555.4,286046999.1,N
1684944575.2,286046998.3,N
1684944595.1,286046998.4,N
1684944596.0,286046998.4,N
1684944615.8,286046999.4,N
1684944635.6,286046998.1,N
1684944655.5,286047000.4,N
1684944675.3,286047000.5,N
1684944695.1,286047001.2,N
1684944715.9,286046996.5,Y
1684944735.7,286046996.7,P
1684944755.6,286046997.9,N
1684944775.4,286046995.2,P
1684944795.2,286046997.7,N
1684944815.1,286046998.1,N
1684944816.0,286046998.1,N
1684944835.8,286047000.7,N
1684944855.6,286046999.2,N
1684944875.5,286046997.2,N
1684944895.3,286046999.2,N
1684944915.2,286046998.8,N
1684944935.9,286046999.6,N
1684944955.7,286046999.2,N
1684944975.6,286046998.7,N
1684944995.4,286046997.4,N
1684945015.2,286046996.1,Y
1684945035.1,286046997.3,P
1684945036.0,286046997.3,P
1684945055.8,286046995.0,P
1684945075.7,286046997.2,N
1684945095.5,286046997.0,N
1684945115.4,286046999.4,N
1684945135.2,286046999.2,N
1684945155.0,286046998.6,N
1684945155.9,286046998.6,N
1684945175.8,286046998.6,N
1684945195.6,286046998.9,N
1684945215.5,286046999.3,N
1684945235.3,286046999.1,N
1684945255.1,286046996.5,N
1684945275.9,286046999.6,N
1684945295.7,286046999.4,N
1684945315.6,286046996.5,N
1684945335.4,286046996.8,N
1684945355.2,286046997.0,N
1684945375.1,286046997.8,N
1684945376.0,286046997.8,N
1684945395.8,286046997.6,N
1684945415.7,286046997.2,N
1684945435.5,286046997.3,N
1684945455.3,286046997.1,N
1684945475.2,286046997.1,N
1684945495.0,286046997.3,N
1684945495.9,286046997.3,N
1684945515.7,286046997.2,N
1684945535.6,286046994.9,Y
1684945555.4,286046998.5,P
1684945575.3,286046998.2,P
1684945595.1,286046998.6,P
1684945615.8,286047000.8,N
1684945635.7,286046998.7,N
1684945655.5,286046998.3,N
1684945675.3,286046998.1,N
1684945695.2,286046998.4,N
1684945715.0,286046998.4,N
1684945715.9,286046998.4,N
1684945735.8,286047000.8,N
1684945755.6,286047000.0,N
1684945775.4,286047000.6,N
1684945795.3,286047000.8,N
1684945815.1,286047000.6,N
1684945835.9,286047000.3,N
1684945855.7,286047000.6,N
1684945875.5,286046998.2,N
1684945895.4,286047000.7,N
1684945915.2,286046998.5,N
1684945935.0,286046998.1,N
1684945935.9,286046998.1,N
1684945955.8,286046998.7,N
1684945975.6,286046998.5,N
1684945995.5,286046998.2,N
1684946015.3,286047000.6,N
1684946035.1,286047000.6,N
1684946055.9,286047000.8,N
1684946075.7,286046999.0,N
1684946095.5,286047001.0,N
1684946115.4,286046998.3,N
1684946135.2,286047001.2,N
1684946155.0,286046998.1,N
1684946156.0,286046998.1,N
1684946175.8,286046998.2,N
1684946195.6,286046998.4,N
1684946215.5,286046999.0,N
1684946235.3,286046996.5,Y
1684946255.1,286046999.2,P
1684946275.9,286046999.4,P
1684946295.7,286046996.8,P
1684946315.6,286046999.5,N
1684946335.4,286046999.1,N
1684946355.2,286046996.5,Y
1684946405.1,286046999.8,E
1684946415.0,286047000.2,N
1684946415.9,286047000.2,P
1684946435.8,286047000.7,P
1684946455.6,286046999.8,N
1684946475.4,286047000.2,N
1684946495.3,286047000.4,N
1684946515.1,286047000.1,N
1684946535.8,286046999.7,N
1684946555.7,286047002.3,Y
1684946575.5,286047002.5,P
1684946595.4,286047002.7,N
1684946615.2,286047001.9,N
1684946635.0,286047002.4,N
1684946635.9,286047002.4,N
1684946655.8,286047002.4,N
1684946675.6,286047001.8,N
1684946695.5,286047002.4,Y
1684946715.3,286046998.8,P
1684946735.1,286046998.3,N
1684946755.9,286046998.4,N
1684946775.7,286046998.6,N
1684946795.6,286046998.2,N
1684946815.4,286046998.1,N
1684946835.2,286046998.1,N
1684946855.1,286047001.0,N
1684946856.0,286047001.0,N
1684946875.8,286047000.9,N
1684946895.7,286047000.7,N
1684946915.5,286047001.0,N
1684946935.3,286046999.9,N
1684946955.2,286046999.7,N
1684946975.0,286046999.8,N
1684946975.9,286046999.8,N
1684946995.7,286047000.1,N
1684947015.6,286046999.7,N
1684947035.4,286047002.0,N
1684947055.3,286047002.2,N
1684947075.1,286047001.6,N
1684947095.8,286047004.2,Y
1684947115.7,286047001.6,P
1684947135.5,286047001.7,N
1684947155.4,286047001.6,N
1684947175.2,286047001.5,N
1684947195.0,286047001.3,N
1684947195.9,286047001.3,N
1684947215.8,286047004.1,Y
1684947235.6,286047001.7,P
1684947255.5,286047001.9,P
1684947275.3,286047000.1,N
1684947295.1,286046999.8,N
1684947315.9,286047000.2,N
1684947335.7,286047000.2,N
1684947355.6,286047001.6,N
1684947375.4,286047002.2,N
1684947395.2,286047001.7,N
1684947415.1,286047001.8,N
1684947416.0,286047001.8,N
1684947435.8,286047001.7,N
1684947455.7,286047002.2,N
1684947475.5,286047001.4,N
1684947495.3,286047003.9,Y
1684947515.2,286047002.6,P
1684947535.0,286047002.8,P
1684947535.9,286047002.8,P
1684947555.7,286047002.1,Y
1684947575.6,286047000.5,P
1684947595.4,286047000.8,N
